Flag for U.S.A. Weather past 2 weeks in Syracuse, New York, U.S.A.

Now
73 °F

Broken clouds.


Feels Like: 74 °F
Forecast: 67 / 84 °F
Wind: 13 mph from West

Location: Syracuse Hancock International Airport

Current Time: Jul 23, 2014 at 7:20:27 PM

Latest Report: Jul 23, 2014 at 6:54 PM


Visibility: 10 mi

Pressure: 29.83 "Hg

Humidity: 76%

Dew point: 65 °F

Location of SyracuseLocation

Historic Weather in Syracuse — Graph

°F

Syracuse temperature yesterday

Maximum temperature yesterday: 87 °F (at 12:54 PM)
Minimum temperature yesterday: 66 °F (at 5:54 AM)
Average temperature yesterday: 77 °F

Past Weeks' High & Low Weather Summary

 TemperatureHumidityPressure
High89 °F (Jul 12, 3:54 PM)100% (Jul 15, 5:54 AM)30.25 "Hg (Jul 15, 5:54 AM)
Low53 °F (Jul 11, 5:54 AM)35% (Jul 11, 4:54 PM)29.49 "Hg (Jul 8, 6:54 PM)
Average71 °F68%29.99 "Hg
* Reported Jul 8 6:03 PM — Jul 23 6:01 PM, Syracuse, Weather by CustomWeather, © 2014

Note: Actual official high and low records may vary slightly from our data, if they occured in-between our weather recording intervals... More about our weather records

Advertising

Syracuse weather history for previous 24 hours

 ConditionsComfort  
Time TempWeatherWind HumidityBarometerVisibility
6:01 PM
Jul 23
72 °FCloudy.9 mph83%29.86 "Hg10 mi
4:54 PM70 °FLight rain. Fog.10 mph87%29.84 "Hg6 mi
3:54 PM74 °FLight rain. Cloudy.10 mph82%29.82 "Hg10 mi
2:54 PM75 °FCloudy.13 mph85%29.81 "Hg6 mi
2:01 PM75 °FThunderstorms. Fog.12 mph89%29.81 "Hg4 mi
12:54 PM88 °FBroken clouds.13 mph55%29.79 "Hg10 mi
11:54 AM88 °FCloudy.13 mph54%29.81 "Hg10 mi
10:54 AM86 °FCloudy.14 mph57%29.82 "Hg10 mi
9:54 AM86 °FBroken clouds.12 mph57%29.82 "Hg10 mi
8:54 AM83 °FMore clouds than sun.15 mph63%29.84 "Hg10 mi
7:54 AM80 °FPartly sunny.9 mph69%29.85 "Hg10 mi
6:54 AM80 °FPartly sunny.12 mph69%29.85 "Hg10 mi
5:54 AM79 °FPartly cloudy.10 mph72%29.84 "Hg10 mi
4:54 AM78 °FOvercast.7 mph74%29.85 "Hg10 mi
3:54 AM79 °FPassing clouds.8 mph72%29.86 "Hg10 mi
1:54 AM80 °FPassing clouds.10 mph69%29.90 "Hg10 mi
12:54 AM80 °FPassing clouds.7 mph69%29.91 "Hg10 mi
11:54 PM
Jul 22
81 °FPassing clouds.10 mph67%29.93 "Hg10 mi
10:54 PM82 °FPartly cloudy.10 mph63%29.92 "Hg10 mi
9:54 PM83 °FPassing clouds.10 mph63%29.94 "Hg10 mi
8:54 PM84 °FPartly sunny.6 mph61%29.95 "Hg10 mi
7:54 PM86 °FBroken clouds.7 mph55%29.95 "Hg10 mi
Weather by CustomWeather, © 2014

See weather overviewHow to use our weather pages